User: anonymous   Login
Location: Unspecified
(0.0000°N, 0.0000°E)
Time: 20:01:37
(UTC+00:00)
Language:

NIUSAT - Orbit

View from above orbital plane
View from above orbital plane
View from above satellite
View from above satellite

Ground track
Ground track

The orbit data is extracted from the following two-line orbital elements,

1 42766U 17036B   19340.72609978 +.00000689 +00000-0 +33713-4 0  9991
2 42766 097.3296 032.8884 0015011 346.6705 013.4132 15.21379920136233
Epoch (UTC): 06 December 2019 17:25:35
Eccentricity: 0.0015011
inclination: 97.3296°
perigee height: 491 km
apogee height: 512 km
right ascension of ascending node: 32.8884°
argument of perigee: 346.6705°
revolutions per day: 15.21379920
mean anomaly at epoch: 13.4132°
orbit number at epoch: 13623

The dashed part of the orbit path shows where the satellite is in the earth's shadow,  

DLR